STARLINK-36937, 68113

Orbit data source: Space-Track

STARLINK-36937, 68113 is a payload satellite owned by SpaceX/Seattle (US) in SSO that was launched on Sun, 08 Mar 2026 UTC via an FALCON 9 launch vehicle from the Air Force Western Test Range (AFWTR). Payload-class satellites include a variety of spacecraft equipped with specific instruments for various scientific and technological missions. These include communications satellites like Starlink; space stations such as the ISS; scientific satellites like the Hubble; Earth observation satellites from companies like Planet Labs, Umbra, and HawkEye 360; GPS; miniature CubeSats for education and research; and military/defense satellites.

Loading next visibility...
Identifier
68113, 2026-044N
Orbit
SSO
Country
Flag of USUS
Related business
Manufacturer
SpaceX/Seattle
Mission
Operational Commercial Communications
Bus & Motor
STARLINK V2MO, Unknown motor
Mass
575 kg wet, ~530 kg dry
Launch date (UTC)
2026-03-08 (6 months ago)
Launch vehicle
FALCON 9
Launch site
Air Force Western Test Range (AFWTR)
Object type
Payload
Rocket body
Debris
Shape & HBR
Box + 1 Pan, 17.7 m
Radar Cross Section
41.120 m², Large (>1 m²)

Expand to show TLE details & history
Last TLE update: 13 hours ago

TLE from 13 hours ago
0 STARLINK-36937
1 68113U 26044N   26246.89701264  .00004115  00000-0  12977-3 0  9992
2 68113  97.2854 206.0863 0001518  91.5655 268.5761 15.33433908 28898
Epoch: 2026-09-03T21:31Z
TLE epoch observation values (Epoch: 2026-09-03T21:31:41.892Z)
Latitude
-0.00006°
Longitude
-99.86685°
Altitude
468.714 km
Speed
7.632 km/s
True Right ascension
13h 44m 20s
True Declination
0° 00' 00"
Sunlit
Object was in daylight at epoch
Visualization orbit readout
Latitude
Unknown
Longitude
Unknown
Altitude
Unknown
Speed
Unknown
Apparent Right ascension
Unknown
Apparent Declination
Unknown
Sunlit
N/A
Visualization observer readout
Local Sidereal Time
01:56:44
Azimuth
Unknown
Elevation
Unknown
Doppler factor
Unknown
Orbital elements
Apogee altitude
463.557 km
Perigee altitude
461.481 km
Semi-major axis
6,840.656 km
Eccentricity
0.00015
Inclination
97.2854°
RAAN
206.0863°
Arg. of periapsis
91.5655°
True anomaly
268.55871°
Mean anomaly
268.5761°
Eccentric anomaly
268.56741°
Mean motion
3.83616 °/min
Orbital period
93.84 mins
BSTAR
0.00012977
Loading maneuver chart data...
Computing Atmospheric mass density...
Loading historical data...
Loading historical data...
Loading historical data...
Loading historical data...
Loading historical data...
Loading historical data...
Loading historical data...

Documentation

Showing up to 5 results
|